Simultaneous Nadir Overpasses (SNOs) Predictions

Prediction of SNOs between GOES-15 and TERRA Satellite Orbit:

Table of predicted SNOs for the next 14.0 days since TLE Epoch: 8/15/2025
Index Date Time (GOES-15) GOES-15 Lat,Lon TERRA Lat,Lon Distance(km) Time Diff (sec)
1 08/16/2025 16:56:54 -0.14, 61.67 0.51, 64.63 337.03 80
2 08/17/2025 05:18:59 0.19, 61.57 0.51, 59.91 188.50 80
3 08/19/2025 04:57:04 0.16, 61.61 -0.46, 64.54 333.53 80
4 08/19/2025 17:19:19 -0.21, 61.73 -0.60, 59.79 219.95 80
5 08/21/2025 16:57:24 -0.18, 61.76 0.39, 64.42 302.18 80
6 08/22/2025 05:19:29 0.23, 61.67 0.62, 59.70 223.15 80
7 08/24/2025 04:57:34 0.20, 61.70 -0.37, 64.33 299.17 80
8 08/24/2025 17:19:48 -0.25, 61.82 -0.73, 59.58 254.39 80
9 08/26/2025 16:57:53 -0.22, 61.86 0.28, 64.21 268.02 80
10 08/27/2025 05:19:57 0.27, 61.76 0.72, 59.49 257.25 80
11 08/29/2025 04:58:02 0.25, 61.80 -0.24, 64.13 264.67 80
12 08/29/2025 17:20:15 -0.30, 61.92 -0.85, 59.38 289.17 80
